CW2984 Weather Reports


Display with metric or nautical units.
time (UTC)temp
F
wind
direction
speed
MPH
gust
MPH
rain 1hr
in
rain 24hr
in
rain mn
in
humidity
%
barometer
mb
20190422163409 77 162 5.0 14.0 0.00 0.00 0.00 81 1015.0
20190422162409 77 150 7.0 16.0 0.00 0.00 0.00 80 1014.9
20190422161409 76 154 6.0 14.0 0.00 0.00 0.00 81 1014.8
20190422160410 75 169 5.0 12.0 0.00 0.00 0.00 83 1014.9
20190422155410 75 121 5.0 15.0 0.00 0.00 0.00 83 1014.9
20190422154409 75 120 5.0 13.0 0.00 0.00 0.00 83 1014.5
20190422153409 74 156 5.0 12.0 0.00 0.00 0.00 85 1014.5
20190422152409 74 164 5.0 10.0 0.00 0.00 0.00 86 1014.5
20190422151409 74 102 5.0 10.0 0.00 0.00 0.00 85 1014.6
20190422150409 74 144 4.0 12.0 0.00 0.00 0.00 85 1014.5
20190422145408 74 163 5.0 10.0 0.00 0.00 0.00 85 1014.2
20190422144409 74 150 5.0 14.0 0.00 0.00 0.00 85 1014.2
20190422143409 75 139 5.0 10.0 0.00 0.00 0.00 83 1014.2
20190422142409 75 144 5.0 17.0 0.00 0.00 0.00 85 1014.3
20190422141410 74 169 5.0 10.0 0.00 0.00 0.00 87 1013.9
20190422140410 74 107 3.0 9.0 0.00 0.00 0.00 87 1013.8
20190422135411 74 137 4.0 9.0 0.00 0.00 0.00 89 1014.0
20190422134410 73 85 5.0 9.0 0.00 0.00 0.00 89 1013.9
20190422133413 73 122 4.0 7.0 0.00 0.00 0.00 90 1013.9
20190422132410 72 152 4.0 7.0 0.00 0.00 0.00 92 1013.6
20190422131409 71 145 2.0 7.0 0.00 0.00 0.00 95 1013.4
20190422130409 70 125 3.0 7.0 0.00 0.00 0.00 96 1013.4
20190422125409 70 175 2.0 6.0 0.00 0.00 0.00 97 1013.4
20190422124409 69 86 3.0 7.0 0.00 0.00 0.00 98 1013.2
20190422123409 69 93 2.0 5.0 0.00 0.00 0.00 98 1013.1
20190422122409 69 113 2.0 6.0 0.00 0.00 0.00 97 1012.9
20190422121409 69 120 1.0 6.0 0.00 0.00 0.00 97 1012.9
20190422120411 69 141 2.0 6.0 0.00 0.00 0.00 97 1012.8
20190422115410 69 115 2.0 6.0 0.00 0.00 0.00 97 1012.8
20190422114409 69 140 2.0 7.0 0.00 0.00 0.00 97 1012.4
20190422113410 69 145 2.0 6.0 0.00 0.00 0.00 97 1012.4
20190422112410 69 141 3.0 6.0 0.00 0.00 0.00 97 1012.6
20190422111409 69 165 2.0 6.0 0.00 0.00 0.00 97 1012.8
20190422110410 69 155 3.0 6.0 0.00 0.00 0.00 96 1012.5
20190422105409 69 143 5.0 10.0 0.00 0.00 0.00 97 1012.6
20190422104410 69 150 3.0 7.0 0.00 0.00 0.00 96 1012.4
20190422103410 69 144 2.0 7.0 0.00 0.00 0.00 96 1012.5
20190422102411 69 146 3.0 7.0 0.00 0.00 0.00 96 1012.5
20190422101410 69 154 3.0 6.0 0.00 0.00 0.00 96 1012.4
20190422100411 70 161 3.0 8.0 0.00 0.00 0.00 96 1012.4
20190422095410 70 134 3.0 9.0 0.00 0.00 0.00 96 1012.3
20190422094410 70 150 5.0 7.0 0.00 0.00 0.00 96 1012.3
20190422093409 70 155 3.0 7.0 0.00 0.00 0.00 96 1012.4
20190422092411 70 160 4.0 9.0 0.00 0.00 0.00 96 1012.4
20190422091412 70 153 3.0 9.0 0.00 0.00 0.00 96 1012.4
20190422090410 70 156 3.0 9.0 0.00 0.00 0.00 96 1012.4
20190422085410 70 162 3.0 7.0 0.00 0.00 0.00 96 1012.3
20190422084410 70 167 4.0 12.0 0.00 0.00 0.00 95 1012.3
20190422083413 70 167 5.0 8.0 0.00 0.00 0.00 96 1012.4
20190422082410 70 166 3.0 10.0 0.00 0.00 0.00 95 1012.6
20190422081410 70 164 3.0 9.0 0.00 0.00 0.00 95 1012.5
20190422080412 70 157 5.0 10.0 0.00 0.00 0.00 95 1012.6
20190422075410 70 169 3.0 16.0 0.00 0.00 0.00 95 1012.8
20190422074413 70 156 4.0 9.0 0.00 0.00 0.00 95 1012.8
20190422073411 70 156 3.0 10.0 0.00 0.00 0.00 95 1012.9
20190422072411 70 149 5.0 14.0 0.00 0.00 0.00 95 1012.9
20190422071411 70 150 5.0 13.0 0.00 0.00 0.00 95 1012.9
20190422070411 70 168 3.0 9.0 0.00 0.00 0.00 95 1013.1
20190422065411 70 153 5.0 12.0 0.00 0.00 0.00 95 1013.0
20190422064410 70 155 5.0 12.0 0.00 0.00 0.00 95 1013.3
20190422063411 70 151 6.0 9.0 0.00 0.00 0.00 95 1013.3
20190422062410 70 162 5.0 12.0 0.00 0.00 0.00 95 1013.3
20190422060410 70 167 5.0 9.0 0.00 0.00 0.00 94 1013.7
20190422055410 70 154 5.0 12.0 0.00 0.00 0.00 94 1013.6
20190422054411 70 156 4.0 15.0 0.00 0.00 0.00 94 1013.6
20190422053411 70 174 5.0 12.0 0.00 0.00 0.00 94 1013.8
20190422052410 70 167 4.0 8.0 0.00 0.00 0.00 94 1013.8
20190422051411 70 153 4.0 7.0 0.00 0.00 0.00 94 1013.6
20190422050411 70 158 5.0 10.0 0.00 0.00 0.00 94 1013.6
20190422045412 70 163 4.0 9.0 0.00 0.00 0.00 94 1014.1
20190422044412 70 131 3.0 9.0 0.00 0.00 0.00 94 1014.0
20190422043412 70 139 4.0 9.0 0.00 0.00 0.00 94 1014.0
20190422042411 70 156 5.0 9.0 0.00 0.00 0.00 94 1014.0
20190422041412 70 124 3.0 7.0 0.00 0.00 0.00 94 1014.3
20190422040412 71 94 3.0 7.0 0.00 0.00 0.00 93 1014.3
20190422035406 71 161 3.0 6.0 0.00 0.00 0.00 93 1014.3
20190422034406 71 147 3.0 9.0 0.00 0.00 0.00 93 1014.1
20190422033407 71 122 3.0 13.0 0.00 0.00 0.00 93 1014.4
20190422032408 71 133 3.0 9.0 0.00 0.00 0.00 93 1014.0
20190422031406 71 124 5.0 7.0 0.00 0.00 0.00 93 1014.4
20190422030405 71 134 3.0 6.0 0.00 0.00 0.00 93 1013.9
20190422025406 71 153 3.0 6.0 0.00 0.00 0.00 93 1013.9
20190422024406 71 149 3.0 10.0 0.00 0.00 0.00 93 1013.7
20190422023406 71 141 5.0 13.0 0.00 0.00 0.00 93 1013.8
20190422022407 71 125 3.0 9.0 0.00 0.00 0.00 93 1013.4
20190422021406 71 143 3.0 9.0 0.00 0.00 0.00 92 1013.2
20190422020406 71 156 4.0 7.0 0.00 0.00 0.00 92 1013.2
20190422015409 71 138 5.0 10.0 0.00 0.00 0.00 92 1012.9
20190422014407 71 158 3.0 7.0 0.00 0.00 0.00 92 1012.8
20190422013406 71 139 5.0 10.0 0.00 0.00 0.00 92 1012.5
20190422012408 71 147 4.0 9.0 0.00 0.00 0.00 91 1012.7
20190422011406 71 156 5.0 9.0 0.00 0.00 0.00 91 1012.3
20190422010406 71 146 3.0 10.0 0.00 0.00 0.00 91 1012.2
20190422005408 71 145 3.0 10.0 0.00 0.00 0.00 90 1012.3
20190422004409 72 141 5.0 10.0 0.00 0.00 0.00 90 1012.3
20190422003406 72 126 4.0 12.0 0.00 0.00 0.00 89 1012.2
20190422002407 72 156 4.0 13.0 0.00 0.00 0.00 88 1012.1
20190422001406 72 158 7.0 13.0 0.00 0.00 0.00 88 1012.4
20190422000408 72 159 5.0 12.0 0.00 0.00 0.00 88 1012.3
20190421235406 73 161 6.0 10.0 0.00 0.00 0.00 87 1012.2
20190421234406 73 137 5.0 12.0 0.00 0.00 0.00 87 1012.4
20190421233407 73 165 3.0 13.0 0.00 0.00 0.00 87 1011.9
20190421232406 73 175 8.0 14.0 0.00 0.00 0.00 85 1011.9
20190421231406 74 160 6.0 13.0 0.00 0.00 0.00 85 1012.4
20190421230406 74 142 6.0 16.0 0.00 0.00 0.00 85 1012.3
20190421225407 74 155 5.0 16.0 0.00 0.00 0.00 84 1012.3
20190421224406 74 161 5.0 13.0 0.00 0.00 0.00 83 1012.1
20190421223406 74 163 5.0 17.0 0.00 0.00 0.00 83 1012.0
20190421222406 76 132 6.0 15.0 0.00 0.00 0.00 80 1012.3
20190421221408 76 205 6.0 14.0 0.00 0.00 0.00 79 1012.3
20190421220407 77 144 7.0 13.0 0.00 0.00 0.00 78 1012.4
20190421215407 77 167 6.0 13.0 0.00 0.00 0.00 80 1012.4
20190421214407 76 156 5.0 16.0 0.00 0.00 0.00 80 1012.3
20190421213407 77 108 7.0 14.0 0.00 0.00 0.00 78 1012.5
20190421212407 77 156 5.0 15.0 0.00 0.00 0.00 79 1012.4
20190421211407 77 162 5.0 13.0 0.00 0.00 0.00 79 1012.8
20190421210407 77 140 5.0 16.0 0.00 0.00 0.00 78 1012.7
20190421205407 77 169 6.0 16.0 0.00 0.00 0.00 78 1012.9
20190421204407 76 161 7.0 16.0 0.00 0.00 0.00 81 1012.9
20190421203410 76 157 7.0 16.0 0.00 0.00 0.00 78 1013.0
20190421202406 77 153 7.0 18.0 0.00 0.00 0.00 79 1013.0
20190421201407 78 125 6.0 20.0 0.00 0.00 0.00 77 1013.3
20190421200407 78 160 7.0 15.0 0.00 0.00 0.00 77 1013.4
20190421195407 78 169 6.0 15.0 0.00 0.00 0.00 77 1013.3
20190421194408 78 162 7.0 21.0 0.00 0.00 0.00 76 1013.4
20190421193407 78 159 7.0 14.0 0.00 0.00 0.00 76 1013.4
20190421192406 78 143 6.0 14.0 0.00 0.00 0.00 76 1013.7
20190421191409 78 182 9.0 16.0 0.00 0.00 0.00 76 1013.8
20190421190407 78 157 7.0 16.0 0.00 0.00 0.00 76 1013.9
20190421185407 78 144 7.0 22.0 0.00 0.00 0.00 75 1013.9
20190421184409 78 140 7.0 16.0 0.00 0.00 0.00 76 1013.9
20190421183407 78 161 9.0 15.0 0.00 0.00 0.00 75 1013.9
20190421182407 79 162 6.0 14.0 0.00 0.00 0.00 75 1014.0
20190421181407 78 172 7.0 17.0 0.00 0.00 0.00 76 1014.2
20190421180407 78 163 7.0 17.0 0.00 0.00 0.00 77 1014.2
20190421175408 78 144 8.0 15.0 0.00 0.00 0.00 76 1014.4
20190421174408 78 178 9.0 16.0 0.00 0.00 0.00 76 1014.4
20190421173410 78 341 10.0 16.0 0.00 0.00 0.00 76 1014.4
20190421172409 78 186 5.0 15.0 0.00 0.00 0.00 76 1014.5
20190421171407 78 171 6.0 17.0 0.00 0.00 0.00 75 1014.5
20190421170408 78 157 5.0 16.0 0.00 0.00 0.00 76 1014.5
20190421165408 78 94 7.0 18.0 0.00 0.00 0.00 76 1014.5
20190421164408 78 168 6.0 18.0 0.00 0.00 0.00 77 1014.5